Location: ?????
(55.6500°N, 37.2500°E)
Time: 11:56:16
(UTC+00:00)

NOSS 2-2 (C) - Pass Details

Date: 19 May 2025
Orbit: 386 x 1711 km, 63.3° (Epoch: 13 June)

Event Time Altitude Azimuth Distance (km) Brightness Sun altitude
Rises 22:15:24 0° 308° (NW) 2,441 7.0 -13.7°
Reaches altitude 10° 22:17:16 10° 308° (NW) 1,657 6.1 -13.6°
Maximum altitude 22:20:53 88° 42° (NE) 576 3.4 -13.5°
Drops below altitude 10° 22:25:46 10° 129° (SE) 2,221 6.2 -13.4°
Sets 22:28:35 0° 130° (SE) 3,369 7.1 -13.3°
